カタログに戻る

STARLINK-11548

運用中通信VLEO
NORAD 62829·PAYLOAD·🇺🇸 United States

打ち上げ Jan 27, 2025 から Cape Canaveral Space Force Station

Loading…

次のパス (今後24時間)

TLE

最新Source: CelesTrak SupGP

元期: Sep 14, 2026, 22:52 UTC

1 62829C 25019A   26257.95326389  .00075644  00000+0  58734-3 0  2573
2 62829  43.0006 244.8693 0001565 256.0112 343.7322 15.70808920    17

AllMySatでSTARLINK-11548をリアルタイム追跡

Download on the App Store